contact:dominique.lefevre@mio.osupytheas.fr, maurice.libes@osupytheas.fr, didier.mallarino@osupytheas.fr
Project:EMSO http://www.emso-fr.org/EMSO-France
Depth: 2436.0 m
Title:EMSO Ligure Ouest : Data MII capteur OXYGEN
DateTime,Latitude,Longitude,Optode-Type,Optode_Serial,Oxygen,Saturation_Oxygen,Temperature
DateTime,Latitude,Longitude,Optode-Type,Optode_Serial,µmol.l-1,%,degC
2019-06-18T00:01:02,42.805,6.029,4330,1995,194.356,59.439,13.289
2019-06-18T00:04:02,42.805,6.029,4330,1995,194.393,59.451,13.290
2019-06-18T00:07:02,42.805,6.029,4330,1995,194.375,59.445,13.290
2019-06-18T00:10:02,42.805,6.029,4330,1995,194.376,59.446,13.290
2019-06-18T00:13:02,42.805,6.029,4330,1995,194.381,59.447,13.290
2019-06-18T00:16:02,42.805,6.029,4330,1995,194.364,59.443,13.291
2019-06-18T00:19:02,42.805,6.029,4330,1995,194.383,59.447,13.290
2019-06-18T00:22:02,42.805,6.029,4330,1995,194.331,59.431,13.289
2019-06-18T00:25:02,42.805,6.029,4330,1995,194.351,59.438,13.290
2019-06-18T00:28:02,42.805,6.029,4330,1995,194.298,59.422,13.290
2019-06-18T00:31:02,42.805,6.029,4330,1995,194.263,59.412,13.291
2019-06-18T00:34:02,42.805,6.029,4330,1995,194.296,59.422,13.290
2019-06-18T00:37:02,42.805,6.029,4330,1995,194.382,59.448,13.290
2019-06-18T00:40:02,42.805,6.029,4330,1995,194.361,59.441,13.290
2019-06-18T00:43:02,42.805,6.029,4330,1995,194.294,59.421,13.290
2019-06-18T00:46:02,42.805,6.029,4330,1995,194.282,59.417,13.291
2019-06-18T00:49:02,42.805,6.029,4330,1995,194.273,59.415,13.291
2019-06-18T00:52:02,42.805,6.029,4330,1995,194.256,59.411,13.291
2019-06-18T00:55:02,42.805,6.029,4330,1995,194.202,59.395,13.292
2019-06-18T00:58:02,42.805,6.029,4330,1995,194.210,59.397,13.291
2019-06-18T01:01:02,42.805,6.029,4330,1995,194.168,59.383,13.291
2019-06-18T01:04:02,42.805,6.029,4330,1995,194.090,59.360,13.292
2019-06-18T01:07:02,42.805,6.029,4330,1995,194.089,59.358,13.290
2019-06-18T01:10:02,42.805,6.029,4330,1995,194.218,59.396,13.289
2019-06-18T01:13:02,42.805,6.029,4330,1995,194.284,59.417,13.290
2019-06-18T01:16:02,42.805,6.029,4330,1995,194.193,59.390,13.290
2019-06-18T01:19:02,42.805,6.029,4330,1995,194.125,59.369,13.290
2019-06-18T01:22:02,42.805,6.029,4330,1995,194.169,59.383,13.291
2019-06-18T01:25:02,42.805,6.029,4330,1995,194.126,59.368,13.289
2019-06-18T01:31:02,42.805,6.029,4330,1995,194.126,59.366,13.288
2019-06-18T01:34:02,42.805,6.029,4330,1995,194.200,59.391,13.289
2019-06-18T01:37:02,42.805,6.029,4330,1995,194.146,59.374,13.289
2019-06-18T01:40:02,42.805,6.029,4330,1995,194.134,59.371,13.290
2019-06-18T01:43:02,42.805,6.029,4330,1995,194.169,59.381,13.289
2019-06-18T01:46:02,42.805,6.029,4330,1995,194.086,59.356,13.289
2019-06-18T01:49:02,42.805,6.029,4330,1995,194.149,59.375,13.289
2019-06-18T01:52:02,42.805,6.029,4330,1995,194.145,59.374,13.289
2019-06-18T01:55:02,42.805,6.029,4330,1995,194.167,59.380,13.289
2019-06-18T01:58:02,42.805,6.029,4330,1995,194.106,59.362,13.289
2019-06-18T02:01:02,42.805,6.029,4330,1995,194.159,59.378,13.289
2019-06-18T02:04:02,42.805,6.029,4330,1995,194.137,59.372,13.290
2019-06-18T02:07:02,42.805,6.029,4330,1995,194.090,59.357,13.289
2019-06-18T02:10:02,42.805,6.029,4330,1995,194.112,59.364,13.289
2019-06-18T02:13:02,42.805,6.029,4330,1995,194.099,59.359,13.289
2019-06-18T02:16:02,42.805,6.029,4330,1995,194.172,59.383,13.290
2019-06-18T02:19:02,42.805,6.029,4330,1995,194.126,59.370,13.291
2019-06-18T02:22:02,42.805,6.029,4330,1995,194.242,59.403,13.289
2019-06-18T02:25:02,42.805,6.029,4330,1995,194.175,59.384,13.290
2019-06-18T02:28:02,42.805,6.029,4330,1995,194.025,59.341,13.292
2019-06-18T02:31:02,42.805,6.029,4330,1995,194.056,59.347,13.289
2019-06-18T02:34:02,42.805,6.029,4330,1995,194.142,59.376,13.291
2019-06-18T02:37:02,42.805,6.029,4330,1995,194.058,59.348,13.290
2019-06-18T02:40:02,42.805,6.029,4330,1995,194.048,59.347,13.291
2019-06-18T02:43:02,42.805,6.029,4330,1995,194.053,59.348,13.291
2019-06-18T02:46:02,42.805,6.029,4330,1995,194.075,59.356,13.292
2019-06-18T02:49:02,42.805,6.029,4330,1995,194.093,59.362,13.292
2019-06-18T02:52:02,42.805,6.029,4330,1995,194.066,59.353,13.292
2019-06-18T02:55:02,42.805,6.029,4330,1995,194.082,59.356,13.291
2019-06-18T02:58:02,42.805,6.029,4330,1995,194.093,59.359,13.290
2019-06-18T03:01:02,42.805,6.029,4330,1995,194.054,59.350,13.292
2019-06-18T03:04:02,42.805,6.029,4330,1995,194.061,59.351,13.291
2019-06-18T03:07:02,42.805,6.029,4330,1995,194.084,59.359,13.292
2019-06-18T03:10:02,42.805,6.029,4330,1995,194.122,59.368,13.290
2019-06-18T03:13:02,42.805,6.029,4330,1995,194.041,59.345,13.291
2019-06-18T03:16:02,42.805,6.029,4330,1995,194.135,59.373,13.291
2019-06-18T03:19:02,42.805,6.029,4330,1995,194.169,59.384,13.291
2019-06-18T03:22:02,42.805,6.029,4330,1995,194.116,59.368,13.291
2019-06-18T03:25:02,42.805,6.029,4330,1995,194.052,59.348,13.291
2019-06-18T03:28:02,42.805,6.029,4330,1995,194.045,59.346,13.291
2019-06-18T03:31:02,42.805,6.029,4330,1995,194.071,59.352,13.290
2019-06-18T03:34:02,42.805,6.029,4330,1995,194.070,59.352,13.290
2019-06-18T03:37:02,42.805,6.029,4330,1995,194.101,59.364,13.292
2019-06-18T03:40:02,42.805,6.029,4330,1995,194.094,59.359,13.290
2019-06-18T03:43:02,42.805,6.029,4330,1995,194.100,59.362,13.291
2019-06-18T03:46:02,42.805,6.029,4330,1995,194.101,59.363,13.291
2019-06-18T03:49:02,42.805,6.029,4330,1995,194.118,59.367,13.290
2019-06-18T03:52:02,42.805,6.029,4330,1995,194.062,59.348,13.289
2019-06-18T03:55:02,42.805,6.029,4330,1995,194.081,59.357,13.291
2019-06-18T03:58:02,42.805,6.029,4330,1995,194.130,59.370,13.290
2019-06-18T04:01:02,42.805,6.029,4330,1995,194.124,59.369,13.291
2019-06-18T04:07:02,42.805,6.029,4330,1995,194.055,59.345,13.288
2019-06-18T04:10:02,42.805,6.029,4330,1995,193.994,59.332,13.293
2019-06-18T04:13:02,42.805,6.029,4330,1995,193.937,59.315,13.292
2019-06-18T04:16:02,42.805,6.029,4330,1995,193.935,59.313,13.292
2019-06-18T04:19:02,42.805,6.029,4330,1995,193.937,59.314,13.293
2019-06-18T04:22:02,42.805,6.029,4330,1995,193.971,59.323,13.291
2019-06-18T04:25:02,42.805,6.029,4330,1995,193.933,59.314,13.293
2019-06-18T04:28:02,42.805,6.029,4330,1995,193.986,59.327,13.291
2019-06-18T04:31:02,42.805,6.029,4330,1995,194.006,59.335,13.292
2019-06-18T04:34:02,42.805,6.029,4330,1995,194.028,59.341,13.291
2019-06-18T04:37:02,42.805,6.029,4330,1995,193.996,59.331,13.291
2019-06-18T04:40:02,42.805,6.029,4330,1995,194.114,59.365,13.290
2019-06-18T04:43:02,42.805,6.029,4330,1995,194.037,59.343,13.291
2019-06-18T04:46:02,42.805,6.029,4330,1995,193.966,59.321,13.291
2019-06-18T04:49:02,42.805,6.029,4330,1995,193.988,59.326,13.290
2019-06-18T04:52:02,42.805,6.029,4330,1995,194.073,59.353,13.290
2019-06-18T04:55:02,42.805,6.029,4330,1995,194.059,59.349,13.290
2019-06-18T04:58:02,42.805,6.029,4330,1995,194.096,59.360,13.290
2019-06-18T05:01:02,42.805,6.029,4330,1995,194.006,59.332,13.290
2019-06-18T05:04:02,42.805,6.029,4330,1995,194.026,59.338,13.290
2019-06-18T05:07:02,42.805,6.029,4330,1995,194.077,59.353,13.290
2019-06-18T05:10:02,42.805,6.029,4330,1995,194.032,59.340,13.290
2019-06-18T05:13:02,42.805,6.029,4330,1995,194.060,59.349,13.290
2019-06-18T05:16:02,42.805,6.029,4330,1995,194.005,59.332,13.290
2019-06-18T05:19:02,42.805,6.029,4330,1995,193.988,59.327,13.290
2019-06-18T05:22:02,42.805,6.029,4330,1995,194.013,59.334,13.290
2019-06-18T05:25:02,42.805,6.029,4330,1995,194.062,59.351,13.291
2019-06-18T05:28:01,42.805,6.029,4330,1995,194.045,59.347,13.292
2019-06-18T05:31:02,42.805,6.029,4330,1995,194.070,59.351,13.290
2019-06-18T05:34:02,42.805,6.029,4330,1995,194.033,59.341,13.290
2019-06-18T05:37:02,42.805,6.029,4330,1995,194.015,59.337,13.291
2019-06-18T05:40:02,42.805,6.029,4330,1995,193.957,59.318,13.291
2019-06-18T05:43:02,42.805,6.029,4330,1995,193.946,59.317,13.292
2019-06-18T05:46:02,42.805,6.029,4330,1995,193.948,59.317,13.292
2019-06-18T05:49:02,42.805,6.029,4330,1995,193.897,59.303,13.293
2019-06-18T05:52:02,42.805,6.029,4330,1995,193.943,59.314,13.291
2019-06-18T05:55:02,42.805,6.029,4330,1995,193.984,59.329,13.293
2019-06-18T05:58:02,42.805,6.029,4330,1995,193.985,59.330,13.293
2019-06-18T06:01:02,42.805,6.029,4330,1995,193.938,59.314,13.292
2019-06-18T06:04:01,42.805,6.029,4330,1995,193.895,59.300,13.291
2019-06-18T06:07:01,42.805,6.029,4330,1995,193.862,59.291,13.292
2019-06-18T06:10:01,42.805,6.029,4330,1995,193.892,59.298,13.290
2019-06-18T06:13:01,42.805,6.029,4330,1995,193.883,59.299,13.293
2019-06-18T06:16:01,42.805,6.029,4330,1995,193.827,59.285,13.295
2019-06-18T06:19:01,42.805,6.029,4330,1995,193.872,59.293,13.291
2019-06-18T06:22:01,42.805,6.029,4330,1995,193.733,59.252,13.293
2019-06-18T06:25:01,42.805,6.029,4330,1995,193.768,59.264,13.293
2019-06-18T06:28:01,42.805,6.029,4330,1995,193.806,59.274,13.292
2019-06-18T06:31:01,42.805,6.029,4330,1995,193.817,59.279,13.293
2019-06-18T06:34:01,42.805,6.029,4330,1995,193.747,59.260,13.295
2019-06-18T06:40:01,42.805,6.029,4330,1995,193.760,59.257,13.290
2019-06-18T06:43:01,42.805,6.029,4330,1995,193.823,59.274,13.288
2019-06-18T06:46:01,42.805,6.029,4330,1995,193.810,59.273,13.290
2019-06-18T06:49:01,42.805,6.029,4330,1995,193.788,59.268,13.292
2019-06-18T06:52:01,42.805,6.029,4330,1995,193.814,59.275,13.291
2019-06-18T06:55:01,42.805,6.029,4330,1995,193.722,59.248,13.292
2019-06-18T06:58:01,42.805,6.029,4330,1995,193.695,59.239,13.291
2019-06-18T07:01:01,42.805,6.029,4330,1995,193.676,59.233,13.291
2019-06-18T07:04:01,42.805,6.029,4330,1995,193.708,59.242,13.291
2019-06-18T07:07:01,42.805,6.029,4330,1995,193.850,59.286,13.291
2019-06-18T07:10:01,42.805,6.029,4330,1995,193.871,59.294,13.292
2019-06-18T07:13:01,42.805,6.029,4330,1995,193.831,59.280,13.291
2019-06-18T07:16:01,42.805,6.029,4330,1995,193.915,59.306,13.292
2019-06-18T07:19:01,42.805,6.029,4330,1995,193.746,59.259,13.294
2019-06-18T07:22:01,42.805,6.029,4330,1995,193.791,59.269,13.292
2019-06-18T07:25:01,42.805,6.029,4330,1995,193.831,59.282,13.293
2019-06-18T07:28:01,42.805,6.029,4330,1995,193.789,59.268,13.292
2019-06-18T07:31:01,42.805,6.029,4330,1995,193.849,59.289,13.293
2019-06-18T07:34:01,42.805,6.029,4330,1995,193.739,59.256,13.294
2019-06-18T07:37:01,42.805,6.029,4330,1995,193.658,59.231,13.294
2019-06-18T07:40:01,42.805,6.029,4330,1995,193.692,59.241,13.294
2019-06-18T07:43:01,42.805,6.029,4330,1995,193.786,59.267,13.292
2019-06-18T07:46:01,42.805,6.029,4330,1995,193.807,59.274,13.292
2019-06-18T07:49:01,42.805,6.029,4330,1995,193.825,59.277,13.290
2019-06-18T07:52:01,42.805,6.029,4330,1995,193.849,59.285,13.290
2019-06-18T07:55:01,42.805,6.029,4330,1995,193.803,59.273,13.292
2019-06-18T07:58:01,42.805,6.029,4330,1995,193.769,59.263,13.292
2019-06-18T08:01:01,42.805,6.029,4330,1995,193.775,59.263,13.291
2019-06-18T08:04:01,42.805,6.029,4330,1995,193.751,59.256,13.291
2019-06-18T08:07:01,42.805,6.029,4330,1995,193.669,59.231,13.291
2019-06-18T08:10:01,42.805,6.029,4330,1995,193.670,59.232,13.291
2019-06-18T08:13:01,42.805,6.029,4330,1995,193.806,59.273,13.292
2019-06-18T08:16:01,42.805,6.029,4330,1995,193.802,59.272,13.292
2019-06-18T08:19:01,42.805,6.029,4330,1995,193.756,59.257,13.291
2019-06-18T08:22:01,42.805,6.029,4330,1995,193.846,59.286,13.292
2019-06-18T08:25:01,42.805,6.029,4330,1995,193.812,59.276,13.292
2019-06-18T08:28:01,42.805,6.029,4330,1995,193.763,59.259,13.291
2019-06-18T08:31:01,42.805,6.029,4330,1995,193.761,59.258,13.290
2019-06-18T08:34:01,42.805,6.029,4330,1995,193.818,59.275,13.290
2019-06-18T08:37:01,42.805,6.029,4330,1995,193.840,59.282,13.290
2019-06-18T08:40:01,42.805,6.029,4330,1995,193.868,59.290,13.290
2019-06-18T08:43:01,42.805,6.029,4330,1995,193.832,59.280,13.291
2019-06-18T08:46:01,42.805,6.029,4330,1995,193.756,59.258,13.291
2019-06-18T08:49:01,42.805,6.029,4330,1995,193.804,59.271,13.290
2019-06-18T08:52:01,42.805,6.029,4330,1995,193.827,59.278,13.290
2019-06-18T08:55:01,42.805,6.029,4330,1995,193.878,59.294,13.291
2019-06-18T08:58:01,42.805,6.029,4330,1995,193.856,59.287,13.290
2019-06-18T09:01:01,42.805,6.029,4330,1995,193.789,59.267,13.291
2019-06-18T09:04:01,42.805,6.029,4330,1995,193.847,59.284,13.290
2019-06-18T09:07:01,42.805,6.029,4330,1995,193.876,59.293,13.291
2019-06-18T09:10:01,42.805,6.029,4330,1995,193.763,59.260,13.292
2019-06-18T09:16:01,42.805,6.029,4330,1995,193.772,59.259,13.289
2019-06-18T09:19:01,42.805,6.029,4330,1995,193.822,59.276,13.290
2019-06-18T09:22:01,42.805,6.029,4330,1995,193.906,59.303,13.291
2019-06-18T09:25:01,42.805,6.029,4330,1995,193.890,59.297,13.290
2019-06-18T09:28:01,42.805,6.029,4330,1995,193.842,59.281,13.289
2019-06-18T09:31:01,42.805,6.029,4330,1995,193.850,59.284,13.290
2019-06-18T09:34:01,42.805,6.029,4330,1995,193.892,59.297,13.290
2019-06-18T09:37:01,42.805,6.029,4330,1995,193.896,59.298,13.290
2019-06-18T09:40:01,42.805,6.029,4330,1995,193.819,59.274,13.289
2019-06-18T09:43:01,42.805,6.029,4330,1995,193.820,59.274,13.289
2019-06-18T09:46:01,42.805,6.029,4330,1995,193.822,59.276,13.290
2019-06-18T09:49:01,42.805,6.029,4330,1995,193.863,59.289,13.291
2019-06-18T09:52:01,42.805,6.029,4330,1995,193.898,59.301,13.291
2019-06-18T09:55:01,42.805,6.029,4330,1995,193.854,59.284,13.289
2019-06-18T09:58:01,42.805,6.029,4330,1995,193.952,59.315,13.289
2019-06-18T10:01:01,42.805,6.029,4330,1995,193.895,59.298,13.290
2019-06-18T10:04:01,42.805,6.029,4330,1995,193.836,59.281,13.291
2019-06-18T10:07:01,42.805,6.029,4330,1995,193.962,59.319,13.290
2019-06-18T10:10:01,42.805,6.029,4330,1995,193.865,59.290,13.291
2019-06-18T10:13:01,42.805,6.029,4330,1995,193.869,59.290,13.290
2019-06-18T10:16:01,42.805,6.029,4330,1995,193.887,59.295,13.289
2019-06-18T10:19:01,42.805,6.029,4330,1995,193.879,59.293,13.289
2019-06-18T10:22:01,42.805,6.029,4330,1995,193.957,59.320,13.292
2019-06-18T10:25:01,42.805,6.029,4330,1995,193.954,59.317,13.291
2019-06-18T10:28:01,42.805,6.029,4330,1995,193.894,59.299,13.291
2019-06-18T10:31:01,42.805,6.029,4330,1995,193.907,59.302,13.290
2019-06-18T10:34:01,42.805,6.029,4330,1995,193.939,59.313,13.291
2019-06-18T10:37:01,42.805,6.029,4330,1995,193.934,59.312,13.291
2019-06-18T10:40:01,42.805,6.029,4330,1995,193.868,59.292,13.291
2019-06-18T10:43:01,42.805,6.029,4330,1995,193.907,59.303,13.291
2019-06-18T10:46:01,42.805,6.029,4330,1995,193.920,59.306,13.290
2019-06-18T10:49:01,42.805,6.029,4330,1995,193.882,59.297,13.292
2019-06-18T10:52:01,42.805,6.029,4330,1995,193.972,59.323,13.290
2019-06-18T10:55:01,42.805,6.029,4330,1995,193.954,59.317,13.291
2019-06-18T10:58:01,42.805,6.029,4330,1995,193.937,59.311,13.290
2019-06-18T11:01:01,42.805,6.029,4330,1995,193.859,59.288,13.291
2019-06-18T11:04:01,42.805,6.029,4330,1995,193.956,59.319,13.291
2019-06-18T11:07:01,42.805,6.029,4330,1995,193.952,59.317,13.291
2019-06-18T11:10:01,42.805,6.029,4330,1995,193.846,59.287,13.292
2019-06-18T11:13:01,42.805,6.029,4330,1995,193.881,59.297,13.292
2019-06-18T11:16:01,42.805,6.029,4330,1995,193.939,59.313,13.291
2019-06-18T11:19:01,42.805,6.029,4330,1995,194.002,59.332,13.291
2019-06-18T11:22:01,42.805,6.029,4330,1995,193.955,59.316,13.289
2019-06-18T11:25:01,42.805,6.029,4330,1995,193.964,59.318,13.289
2019-06-18T11:28:01,42.805,6.029,4330,1995,193.998,59.331,13.291
2019-06-18T11:31:01,42.805,6.029,4330,1995,193.904,59.300,13.289
2019-06-18T11:34:01,42.805,6.029,4330,1995,193.837,59.280,13.289
2019-06-18T11:37:01,42.805,6.029,4330,1995,193.838,59.280,13.289
2019-06-18T11:40:01,42.805,6.029,4330,1995,193.923,59.306,13.289
2019-06-18T11:43:01,42.805,6.029,4330,1995,194.009,59.332,13.289
2019-06-18T11:46:01,42.805,6.029,4330,1995,193.902,59.299,13.289
2019-06-18T11:52:01,42.805,6.029,4330,1995,193.919,59.305,13.290
2019-06-18T11:55:01,42.805,6.029,4330,1995,193.883,59.296,13.291
2019-06-18T11:58:01,42.805,6.029,4330,1995,193.874,59.293,13.291
2019-06-18T12:01:01,42.805,6.029,4330,1995,193.868,59.291,13.291
2019-06-18T12:04:01,42.805,6.029,4330,1995,193.947,59.313,13.289
2019-06-18T12:07:01,42.805,6.029,4330,1995,193.934,59.310,13.290
2019-06-18T12:10:01,42.805,6.029,4330,1995,193.886,59.296,13.290
2019-06-18T12:13:01,42.805,6.029,4330,1995,193.783,59.265,13.291
2019-06-18T12:16:01,42.805,6.029,4330,1995,193.872,59.291,13.290
2019-06-18T12:19:01,42.805,6.029,4330,1995,194.018,59.336,13.290
2019-06-18T12:22:01,42.805,6.029,4330,1995,193.962,59.320,13.291
2019-06-18T12:25:01,42.805,6.029,4330,1995,194.001,59.333,13.292
2019-06-18T12:28:01,42.805,6.029,4330,1995,193.973,59.322,13.289
2019-06-18T12:31:01,42.805,6.029,4330,1995,193.929,59.308,13.290
2019-06-18T12:34:01,42.805,6.029,4330,1995,193.987,59.326,13.290
2019-06-18T12:37:01,42.805,6.029,4330,1995,193.993,59.327,13.289
2019-06-18T12:40:01,42.805,6.029,4330,1995,194.047,59.343,13.289
2019-06-18T12:43:01,42.805,6.029,4330,1995,193.886,59.294,13.288
2019-06-18T12:46:01,42.805,6.029,4330,1995,193.958,59.316,13.289
2019-06-18T12:49:01,42.805,6.029,4330,1995,193.950,59.313,13.288
2019-06-18T12:52:01,42.805,6.029,4330,1995,193.975,59.321,13.288
2019-06-18T12:55:01,42.805,6.029,4330,1995,194.008,59.331,13.289
2019-06-18T12:58:01,42.805,6.029,4330,1995,193.975,59.322,13.289
2019-06-18T13:01:01,42.805,6.029,4330,1995,193.981,59.323,13.288
2019-06-18T13:04:01,42.805,6.029,4330,1995,193.994,59.326,13.288
2019-06-18T13:07:01,42.805,6.029,4330,1995,194.048,59.343,13.289
2019-06-18T13:10:01,42.805,6.029,4330,1995,194.053,59.344,13.288
2019-06-18T13:13:01,42.805,6.029,4330,1995,194.043,59.342,13.289
2019-06-18T13:16:01,42.805,6.029,4330,1995,194.057,59.347,13.289
2019-06-18T13:19:01,42.805,6.029,4330,1995,194.047,59.344,13.289
2019-06-18T13:22:01,42.805,6.029,4330,1995,194.096,59.358,13.289
2019-06-18T13:25:01,42.805,6.029,4330,1995,194.087,59.357,13.290
2019-06-18T13:28:01,42.805,6.029,4330,1995,194.231,59.399,13.288
2019-06-18T13:31:01,42.805,6.029,4330,1995,194.215,59.395,13.289
2019-06-18T13:34:01,42.805,6.029,4330,1995,194.292,59.418,13.289
2019-06-18T13:37:01,42.805,6.029,4330,1995,194.340,59.434,13.290
2019-06-18T13:40:01,42.805,6.029,4330,1995,194.348,59.436,13.289
2019-06-18T13:43:01,42.805,6.029,4330,1995,194.312,59.424,13.289
2019-06-18T13:46:01,42.805,6.029,4330,1995,194.392,59.448,13.288
2019-06-18T13:49:01,42.805,6.029,4330,1995,194.440,59.463,13.289
2019-06-18T13:52:01,42.805,6.029,4330,1995,194.468,59.472,13.289
2019-06-18T13:55:01,42.805,6.029,4330,1995,194.486,59.478,13.289
2019-06-18T13:58:01,42.805,6.029,4330,1995,194.479,59.477,13.290
2019-06-18T14:01:01,42.805,6.029,4330,1995,194.521,59.488,13.289
2019-06-18T14:04:01,42.805,6.029,4330,1995,194.523,59.491,13.290
2019-06-18T14:07:01,42.805,6.029,4330,1995,194.579,59.506,13.289
2019-06-18T14:10:01,42.805,6.029,4330,1995,194.534,59.494,13.290
2019-06-18T14:13:01,42.805,6.029,4330,1995,194.553,59.498,13.289
2019-06-18T14:16:01,42.805,6.029,4330,1995,194.557,59.500,13.289
2019-06-18T14:19:01,42.805,6.029,4330,1995,194.580,59.507,13.290
2019-06-18T14:28:01,42.805,6.029,4330,1995,194.612,59.514,13.287
2019-06-18T14:31:01,42.805,6.029,4330,1995,194.607,59.515,13.289
2019-06-18T14:34:01,42.805,6.029,4330,1995,194.614,59.516,13.288
2019-06-18T14:37:01,42.805,6.029,4330,1995,194.581,59.507,13.289
2019-06-18T14:40:01,42.805,6.029,4330,1995,194.579,59.505,13.288
2019-06-18T14:43:01,42.805,6.029,4330,1995,194.552,59.499,13.290
2019-06-18T14:46:01,42.805,6.029,4330,1995,194.597,59.512,13.289
2019-06-18T14:49:01,42.805,6.029,4330,1995,194.659,59.532,13.290
2019-06-18T14:52:01,42.805,6.029,4330,1995,194.632,59.522,13.289
2019-06-18T14:55:01,42.805,6.029,4330,1995,194.598,59.513,13.290
2019-06-18T14:58:01,42.805,6.029,4330,1995,194.573,59.506,13.290
2019-06-18T15:01:01,42.805,6.029,4330,1995,194.538,59.495,13.290
2019-06-18T15:04:01,42.805,6.029,4330,1995,194.596,59.512,13.289
2019-06-18T15:07:01,42.805,6.029,4330,1995,194.565,59.503,13.290
2019-06-18T15:10:01,42.805,6.029,4330,1995,194.562,59.503,13.291
2019-06-18T15:13:01,42.805,6.029,4330,1995,194.460,59.470,13.289
2019-06-18T15:16:01,42.805,6.029,4330,1995,194.482,59.477,13.289
2019-06-18T15:19:01,42.805,6.029,4330,1995,194.511,59.486,13.289
2019-06-18T15:22:01,42.805,6.029,4330,1995,194.481,59.478,13.290
2019-06-18T15:25:01,42.805,6.029,4330,1995,194.520,59.489,13.290
2019-06-18T15:28:01,42.805,6.029,4330,1995,194.483,59.478,13.290
2019-06-18T15:31:01,42.805,6.029,4330,1995,194.521,59.489,13.289
2019-06-18T15:34:01,42.805,6.029,4330,1995,194.526,59.492,13.290
2019-06-18T15:37:01,42.805,6.029,4330,1995,194.452,59.469,13.290
2019-06-18T15:40:01,42.805,6.029,4330,1995,194.520,59.488,13.289
2019-06-18T15:43:01,42.805,6.029,4330,1995,194.444,59.467,13.291
2019-06-18T15:46:01,42.805,6.029,4330,1995,194.499,59.483,13.290
2019-06-18T15:49:01,42.805,6.029,4330,1995,194.436,59.463,13.289
2019-06-18T15:52:01,42.805,6.029,4330,1995,194.416,59.459,13.291
2019-06-18T15:55:01,42.805,6.029,4330,1995,194.472,59.475,13.290
2019-06-18T15:58:01,42.805,6.029,4330,1995,194.512,59.486,13.289
2019-06-18T16:01:01,42.805,6.029,4330,1995,194.530,59.491,13.288
2019-06-18T16:04:01,42.805,6.029,4330,1995,194.503,59.484,13.290
2019-06-18T16:07:01,42.805,6.029,4330,1995,194.500,59.483,13.289
2019-06-18T16:10:01,42.805,6.029,4330,1995,194.478,59.476,13.290
2019-06-18T16:13:01,42.805,6.029,4330,1995,194.477,59.476,13.290
2019-06-18T16:16:01,42.805,6.029,4330,1995,194.495,59.481,13.289
2019-06-18T16:19:01,42.805,6.029,4330,1995,194.506,59.484,13.289
2019-06-18T16:22:01,42.805,6.029,4330,1995,194.462,59.469,13.288
2019-06-18T16:25:01,42.805,6.029,4330,1995,194.493,59.480,13.289
2019-06-18T16:28:01,42.805,6.029,4330,1995,194.465,59.472,13.289
2019-06-18T16:31:01,42.805,6.029,4330,1995,194.480,59.476,13.289
2019-06-18T16:34:01,42.805,6.029,4330,1995,194.502,59.482,13.289
2019-06-18T16:37:01,42.805,6.029,4330,1995,194.473,59.475,13.290
2019-06-18T16:40:01,42.805,6.029,4330,1995,194.501,59.482,13.289
2019-06-18T16:43:01,42.805,6.029,4330,1995,194.444,59.466,13.289
2019-06-18T16:46:01,42.805,6.029,4330,1995,194.464,59.471,13.289
2019-06-18T16:49:01,42.805,6.029,4330,1995,194.435,59.464,13.290
2019-06-18T16:52:01,42.805,6.029,4330,1995,194.427,59.461,13.290
2019-06-18T16:55:01,42.805,6.029,4330,1995,194.419,59.458,13.290
2019-06-18T17:01:01,42.805,6.029,4330,1995,194.405,59.453,13.289
2019-06-18T17:04:01,42.805,6.029,4330,1995,194.419,59.459,13.290
2019-06-18T17:07:01,42.805,6.029,4330,1995,194.375,59.446,13.290
2019-06-18T17:10:01,42.805,6.029,4330,1995,194.368,59.442,13.289
2019-06-18T17:13:01,42.805,6.029,4330,1995,194.455,59.469,13.289
2019-06-18T17:16:01,42.805,6.029,4330,1995,194.380,59.445,13.289
2019-06-18T17:19:01,42.805,6.029,4330,1995,194.344,59.434,13.289
2019-06-18T17:22:01,42.805,6.029,4330,1995,194.380,59.445,13.289
2019-06-18T17:25:01,42.805,6.029,4330,1995,194.438,59.463,13.289
2019-06-18T17:28:01,42.805,6.029,4330,1995,194.380,59.445,13.289
2019-06-18T17:31:01,42.805,6.029,4330,1995,194.366,59.441,13.289
2019-06-18T17:34:01,42.805,6.029,4330,1995,194.270,59.413,13.290
2019-06-18T17:37:01,42.805,6.029,4330,1995,194.300,59.422,13.290
2019-06-18T17:40:01,42.805,6.029,4330,1995,194.312,59.424,13.289
2019-06-18T17:43:01,42.805,6.029,4330,1995,194.305,59.425,13.291
2019-06-18T17:46:01,42.805,6.029,4330,1995,194.346,59.437,13.290
2019-06-18T17:49:01,42.805,6.029,4330,1995,194.312,59.426,13.290
2019-06-18T17:52:01,42.805,6.029,4330,1995,194.271,59.413,13.290
2019-06-18T17:55:01,42.805,6.029,4330,1995,194.314,59.426,13.290
2019-06-18T17:58:01,42.805,6.029,4330,1995,194.277,59.415,13.290
2019-06-18T18:01:01,42.805,6.029,4330,1995,194.282,59.416,13.290
2019-06-18T18:04:01,42.805,6.029,4330,1995,194.228,59.402,13.292
2019-06-18T18:07:01,42.805,6.029,4330,1995,194.260,59.411,13.290
2019-06-18T18:10:01,42.805,6.029,4330,1995,194.268,59.413,13.290
2019-06-18T18:13:01,42.805,6.029,4330,1995,194.221,59.398,13.290
2019-06-18T18:16:01,42.805,6.029,4330,1995,194.267,59.413,13.291
2019-06-18T18:19:01,42.805,6.029,4330,1995,194.236,59.404,13.291
2019-06-18T18:22:01,42.805,6.029,4330,1995,194.196,59.392,13.291
2019-06-18T18:25:01,42.805,6.029,4330,1995,194.213,59.397,13.291
2019-06-18T18:28:01,42.805,6.029,4330,1995,194.249,59.408,13.291
2019-06-18T18:31:01,42.805,6.029,4330,1995,194.181,59.388,13.291